Погода в Хватове Заводе

Россия / Смоленская область     54°53′34″N   34°13′55″E
темп.,
°C
ветер,
м/с
пор.,
м/с
влажн.,
%
обл.,
%
осадки,
мм/ч
давл.,
гПа
погр.,
м
1 декабря, ср
ср100:00−4зюз71486100 0.6 9851054
03:00−4зюз61288100 0.8 9871008
06:00−4зюз61289100 0.1 988933
09:00−5зюз61187100 0.2 989976
12:00−5зюз5985100 0.1 991911
15:00−5з5986100 0.3 993943
18:00−7з4119096 0.1 995579
21:00−9з4109066 0.1 997459
2 декабря, чт
чт200:00−9з3109587 0.0 1000340
03:00−9зюз3897100 0.0 1001243
06:00−7юз389793 0.1 1001292
09:00−6ю3992100 0.1 1001433
12:00−4ююв51393100 0.1 998614
15:00−2ю51396100 1.9 996653
18:000ююз41397100 0.8 996660
21:00+1ююз51398100 0.9 997744
3 декабря, пт
пт300:00+2юз51496100 0.0 997817
03:00+1юз41198100 0.1 999855
06:000юз51386100 0.0 999615
09:00−1ююз41193100 0.0 1001415
12:000ююз3992100 0.0 1001409
15:00+1ююз2796100 0.1 1000496
18:00−1юз2499100 1.6 999211
21:00−1зюз41095100 2.1 999588
4 декабря, сб
сб400:00−2зюз51190100 0.1 1001996
03:00−2зюз6128497 0.1 10021077
06:00−3зюз71388100 0.1 10031034
09:00−3зюз6128899 0.3 10061046
12:00−3з61085100 0.1 10081020
15:00−3з598381 0.2 1009841
18:00−5з4119489 0.0 1012467
21:00−6з3109581 0.0 1014333
5 декабря, вс
вс500:00−7з279887 0.0 1016175
03:00−8з259993 0.0 1017126
06:00−7зсз239799 0.0 1019197
09:00−6зсз0193100 0.1 1020285
12:00−5ююз1289100 0.0 1022344
15:00−4в229199 0.0 1022217
18:00−7в2497100 0.0 102472
21:00−7вюв2697100 0.0 1025157